Location: Bakov nad Jizerou
(50.4784°N, 14.9394°E)
Time: 17:48:00
(UTC+00:00)

Cosmos 2322 - Pass Details

Date: 01 November 2021
Orbit: 841 x 854 km, 71.0° (Epoch: 04 December)

Event Time Altitude Azimuth Distance (km) Brightness Sun altitude
Rises 18:43:18 0° 245° (WSW) 3,418 7.6 -30.1°
Reaches altitude 10° 18:46:05 10° 256° (WSW) 2,485 6.8 -30.6°
Maximum altitude 18:51:00 29° 316° (NW) 1,518 5.4 -31.3°
Enters shadow 18:54:38 16° 7° (N) 2,096 5.8 -31.9°
